Regional Weather Roundup
Issued by NWS

Home | Current Version | Previous Version | Text Only | Print | Product List | Glossary On
Versions: 1 2 3 4 5 6 7 8 9 10 11 12 13 14 15 16 17 18 19 20 21 22 23 24 25 26 27 28 29 30 31 32 33 34 35 36 37 38 39 40 41 42 43 44 45 46 47 48 49 50
000
ASUS43 KMKX 071900
RWRWI

WISCONSIN REGIONAL WEATHER ROUNDUP
NATIONAL WEATHER SERVICE MILWAUKEE/SULLIVAN WI
100 PM CST SUN FEB 07 2016

NOTE: "FAIR" INDICATES FEW OR NO CLOUDS BELOW 12,000 FEET WITH NO
SIGNIFICANT WEATHER AND/OR OBSTRUCTIONS TO VISIBILITY.

WIZ001-002-006>008-014>016-023>028-072000-
NORTHWEST WISCONSIN

CITY           SKY/WX    TMP DP  RH WIND       PRES   REMARKS
SUPERIOR ARPT  CLOUDY    37  32  83 W16       29.48F WCI  27
ASHLAND        CLOUDY    37  33  85 SW13G20   29.48S WCI  29
HAYWARD        FLURRIES  36  29  75 W12       29.50F WCI  28
SIREN          LGT RAIN  36  31  83 W8        29.55S WCI  29
CUMBERLAND     LGT SNOW  36  28  75 W15G23    29.54S WCI  26
RICE LAKE      CLOUDY    38  28  66 W17       29.57S WCI  28
CHETEK         CLOUDY    39  28  64 W10G16    29.55F WCI  32
LADYSMITH      CLOUDY    37  30  74 W9        29.55S WCI  31
EAU CLAIRE     CLOUDY    39  26  59 W15       29.58F WCI  31
MENOMONIE      PTSUNNY   42  26  54 W17       29.59F
NEW RICHMOND   CLOUDY    40  26  57 W23       29.58S WCI  29
OSCEOLA        CLOUDY    40  27  61 W17G23    29.61S WCI  31
$$

WIZ003>005-009-010-017-018-072000-
NORTH CENTRAL WISCONSIN

CITY           SKY/WX    TMP DP  RH WIND       PRES   REMARKS
MANITOWISH WTR CLOUDY    32  32  99 SW7       29.47F WCI  26
ARBOR VITAE    CLOUDY    34  32  92 SW8       29.49S WCI  27
WOODRUFF       CLOUDY    34  32  92 SW8       29.49S WCI  27
RHINELANDER    CLOUDY    32  29  88 SW9       29.51F WCI  24
EAGLE RIVER    MIX PCPN  32  31  96 SW9       29.49S WCI  24
LAND O LAKES   MIX PCPN  32  31  96 SW5       29.49F WCI  28
PHILLIPS       CLOUDY    33  31  95 SW10      29.50S WCI  24
TOMAHAWK       CLOUDY    34  29  83 SW5       29.52F WCI  30
MEDFORD        CLOUDY    35  29  79 W13       29.53F WCI  27
MERRILL        CLOUDY    36  30  81 W14       29.54F WCI  27
$$

WIZ029-030-035-036-043>047-072000-
CENTRAL WISCONSIN

CITY           SKY/WX    TMP DP  RH WIND       PRES   REMARKS
WAUSAU         CLOUDY    38  29  70 W13       29.53F WCI  30
MOSINEE        CLOUDY    36  30  80 W15       29.57F WCI  26
MARSHFIELD     CLOUDY    39  26  59 W13       29.56F WCI  31
STEVENS POINT  CLOUDY    37  28  71 W12G17    29.58F WCI  29
WAUPACA        CLOUDY    42  30  63 W14       29.59F
WAUTOMA        CLOUDY    41  30  65 W13       29.61F
WISC RAPIDS    CLOUDY    40  27  59 W10       29.60F WCI  33
CAMP DOUGLAS   NOT AVBL
$$

WIZ011>013-019>022-031-037>040-048>050-072000-
NORTHEAST WISCONSIN

CITY           SKY/WX    TMP DP  RH WIND       PRES   REMARKS
ANTIGO         CLOUDY    33  29  86 W12       29.53F WCI  25
SHAWANO        CLOUDY    42  31  65 SW9G17    29.57F
OCONTO         CLOUDY    40  31  69 W7        29.56F
STURGEON BAY   MOSUNNY   39  28  65 W14       29.60S WCI  31
GREEN BAY      CLOUDY    40  31  70 S9        29.58F WCI  34
MANITOWOC      NOT AVBL
APPLETON       PTSUNNY   39  28  65 SW10      29.57  WCI  32
CLINTONVILLE   CLOUDY    37  30  75 SW13      29.58F WCI  29
OSHKOSH        MOSUNNY   40  30  67 SW9       29.60F WCI  34
$$

WIZ032>034-041-042-053>061-072000-
SOUTHWEST WISCONSIN

CITY           SKY/WX    TMP DP  RH WIND       PRES   REMARKS
LA CROSSE      SUNNY     41  25  53 W18G28    29.65F
SPARTA         SUNNY     42  28  57 W14G22    29.65S
VIROQUA        SUNNY     39  27  62 W17G24    29.65F WCI  30
BOSCOBEL       SUNNY     41  26  55 W14G23    29.70F
PRAIRIE DU CHI MOSUNNY   39  25  56 W9G16     29.73S WCI  33
PLATTEVILLE    SUNNY     39  28  64 W21G28    29.71F WCI  29
$$

WIZ056-057-062-063-064-067-068-072000-
SOUTH CENTRAL WISCONSIN

CITY           SKY/WX    TMP DP  RH WIND       PRES   REMARKS
REEDSBURG      MOSUNNY   40  29  63 W12G17    29.64F WCI  34
BARABOO/DELLS  MOSUNNY   40  28  60 W14       29.63F WCI  33
LONE ROCK      SUNNY     41  27  57 W15       29.67F
MINERAL POINT  SUNNY     41  30  65 W16       29.68F
MADISON        MOSUNNY   40  29  64 SW10      29.65F WCI  33
MIDDLETON      SUNNY     42  30  62 SW14G21   29.66F
WATERTOWN      SUNNY     41  32  69 SW13      29.65F
MONROE         SUNNY     41  30  65 W18       29.69S
JANESVILLE     SUNNY     45  32  61 SW13G21   29.68F
$$

WIZ051-052-058>065-066-070>072-072000-
SOUTHEAST WISCONSIN

CITY           SKY/WX    TMP DP  RH WIND       PRES   REMARKS
MILWAUKEE      PTSUNNY   43  30  60 SW18      29.66F
WAUKESHA       SUNNY     39  30  70 SW13G21   29.66F WCI  32
MILWAUKEE/TIMM SUNNY     43  28  56 SW12G18   29.65F
RACINE         PTSUNNY   42  30  62 SW14      29.68F
BURLINGTON     CLOUDY    40  30  69 SW12      29.68F WCI  33
KENOSHA        PTSUNNY   41  31  67 SW17      29.68F
FOND DU LAC    SUNNY     40  30  67 SW12      29.61F WCI  33
SHEBOYGAN      SUNNY     40  31  70 SW12      29.61F WCI  33
WEST BEND      SUNNY     41  30  65 SW10      29.63F
JUNEAU         SUNNY     39  30  71 SW17      29.65F WCI  29
$$

LSZ147-162-072000-
LAKE SUPERIOR

STATION/POSITION TIME  TEMP    WIND        PRES    WAVE
                       AIR SEA DIR/SP/G            HT/PER
                 (UTC) (F)     (DEG/KT/KT) (MB)    (FT/S)
DEVILS ISLAND    1800   33     220/  9/ 11  998.1F
PORT WING        1800   37     230/  8/ 12  998.6R
SAXON HARBOR     1800   38                  998.3F
$$

LMZ867-665-643>646-072000-
LAKE MICHIGAN

STATION/POSITION TIME  TEMP    WIND        PRES    WAVE
                       AIR SEA DIR/SP/G            HT/PER
                 (UTC) (F)     (DEG/KT/KT) (MB)    (FT/S)
CHAMBERS ISLAND  1800   38     180/  9/ 16 1001.7F
NORTHPORT PIER   1800   40     190/  3/ 11 1002.0F
ALGOMA LAKESHORE 1811          230/ 13/ 18   N/A
KEWAUNEE LAKESHO 1800   40     250/ 11/ 15 1001.9F
SHEBOYGAN LAKESH 1800   41     220/ 16/ 19 1004.1F
PORT WASHINGTON  1800   43     250/ 11/ 19 1005.1
MILWAUKEE LAKESH 1810   42     240/ 12/ 15   N/A
KENOSHA   LAKESH 1800   41     240/ 15/ 21 1006.1F
$$

TC  - TEMPERATURE IN CELSIUS
VSB - VISIBILITY IN STATUTE MILES
WCI - WIND CHILL INDEX
HX  - HEAT INDEX




USA.gov is the U.S. government's official web portal to all federal, state and local government web resources and services.